• în Republica Moldova
  • Lista ţărilor
  • Pe 7 zile
  • Temperatura apei
  • Hartă satelitară
  • Meteo pe hartă
  • Widget-uri
  • user-avatar
    Intrare

    Meteo pe oră la Townsville

    Astăzi, 21 Noiembrie, Marţi

    Timp Temperatura Precipitaţii Vânt Presiune Umiditate
    00:00 +24°C° 0,3 mm 6 m/s 752 mmHg 85%
    01:00 +23°C° 0,3 mm 6 m/s 752 mmHg 86%
    02:00 +23°C° 0,2 mm 6 m/s 752 mmHg 86%
    03:00 +23°C° 0,2 mm 5 m/s 752 mmHg 86%
    04:00 +23°C° 0 mm 5 m/s 751 mmHg 88%
    05:00 +23°C° 0,5 mm 5 m/s 752 mmHg 86%
    06:00 +25°C° 0,5 mm 5 m/s 752 mmHg 84%
    07:00 +25°C° 0,5 mm 5 m/s 752 mmHg 82%
    08:00 +26°C° 0,5 mm 5 m/s 752 mmHg 77%
    09:00 +27°C° 0,5 mm 5 m/s 752 mmHg 72%
    10:00 +27°C° 0 mm 6 m/s 753 mmHg 70%
    11:00 +28°C° 0,9 mm 6 m/s 752 mmHg 68%
    12:00 +28°C° 0,9 mm 6 m/s 752 mmHg 65%
    13:00 +29°C° 0,9 mm 6 m/s 752 mmHg 63%
    14:00 +28°C° 0,6 mm 6 m/s 751 mmHg 63%
    15:00 +28°C° 0,6 mm 6 m/s 751 mmHg 64%
    16:00 +28°C° 0 mm 5 m/s 751 mmHg 67%
    17:00 +27°C° 0,4 mm 5 m/s 751 mmHg 71%
    18:00 +26°C° 0,4 mm 5 m/s 751 mmHg 75%
    19:00 +25°C° 0,4 mm 5 m/s 751 mmHg 79%
    20:00 +25°C° 0,2 mm 5 m/s 751 mmHg 81%
    21:00 +23°C° 0,2 mm 5 m/s 752 mmHg 82%
    22:00 +23°C° 0,2 mm 5 m/s 752 mmHg 83%
    23:00 +23°C° 0,5 mm 4 m/s 751 mmHg 84%

    Mâine, 22 Noiembrie, Miercuri

    Timp Temperatura Precipitaţii Vânt Presiune Umiditate
    00:00 +23°C° 0,5 mm 4 m/s 751 mmHg 86%
    01:00 +23°C° 0,5 mm 4 m/s 751 mmHg 87%
    02:00 +22°C° 0,4 mm 4 m/s 751 mmHg 88%
    03:00 +22°C° 0,4 mm 4 m/s 750 mmHg 88%
    04:00 +22°C° 0,4 mm 4 m/s 750 mmHg 89%
    05:00 +22°C° 0,2 mm 4 m/s 750 mmHg 87%
    06:00 +23°C° 0,2 mm 4 m/s 751 mmHg 85%
    07:00 +23°C° 0,2 mm 4 m/s 751 mmHg 83%
    08:00 +25°C° 0,3 mm 4 m/s 751 mmHg 78%
    09:00 +26°C° 0,3 mm 4 m/s 751 mmHg 74%
    10:00 +27°C° 0,3 mm 4 m/s 751 mmHg 69%
    11:00 +28°C° 0,5 mm 4 m/s 751 mmHg 66%
    12:00 +29°C° 0,5 mm 4 m/s 750 mmHg 63%
    13:00 +30°C° 0,5 mm 5 m/s 750 mmHg 60%
    14:00 +29°C° 0,7 mm 5 m/s 749 mmHg 62%
    15:00 +29°C° 0,7 mm 5 m/s 749 mmHg 64%
    16:00 +28°C° 0,7 mm 5 m/s 749 mmHg 66%
    17:00 +27°C° 0,6 mm 4 m/s 749 mmHg 71%
    18:00 +26°C° 0,6 mm 4 m/s 749 mmHg 77%
    19:00 +25°C° 0,6 mm 3 m/s 750 mmHg 82%
    20:00 +23°C° 0,1 mm 4 m/s 750 mmHg 84%
    21:00 +23°C° 0,1 mm 4 m/s 750 mmHg 86%
    22:00 +23°C° 0,1 mm 4 m/s 751 mmHg 88%
    23:00 +23°C° 0,2 mm 4 m/s 750 mmHg 90%

    Poimâine, 23 Noiembrie, Joi

    Timp Temperatura Precipitaţii Vânt Presiune Umiditate
    00:00 +22°C° 0,2 mm 4 m/s 750 mmHg 91%
    01:00 +22°C° 0,2 mm 3 m/s 750 mmHg 92%
    02:00 +22°C° 0,1 mm 3 m/s 750 mmHg 93%
    03:00 +22°C° 0,1 mm 3 m/s 750 mmHg 94%
    04:00 +22°C° 0,1 mm 3 m/s 750 mmHg 94%
    05:00 +24°C° 0,1 mm 3 m/s 750 mmHg 91%
    06:00 +24°C° 0,1 mm 3 m/s 751 mmHg 88%
    07:00 +25°C° 0,1 mm 3 m/s 751 mmHg 86%
    08:00 +26°C° 0,3 mm 3 m/s 751 mmHg 77%
    09:00 +28°C° 0,3 mm 3 m/s 751 mmHg 69%
    10:00 +30°C° 0,3 mm 3 m/s 751 mmHg 60%
    11:00 +30°C° 0,3 mm 4 m/s 751 mmHg 59%
    12:00 +32°C° 0,3 mm 4 m/s 750 mmHg 57%
    13:00 +32°C° 0,3 mm 4 m/s 750 mmHg 56%
    14:00 +32°C° 0,4 mm 4 m/s 749 mmHg 59%
    15:00 +30°C° 0,4 mm 4 m/s 749 mmHg 62%
    16:00 +30°C° 0,4 mm 4 m/s 749 mmHg 65%
    17:00 +28°C° 0 mm 4 m/s 749 mmHg 71%
    18:00 +27°C° 0 mm 4 m/s 750 mmHg 77%
    19:00 +26°C° 0 mm 4 m/s 750 mmHg 83%
    20:00 +26°C° 0,1 mm 4 m/s 751 mmHg 85%
    21:00 +25°C° 0,1 mm 4 m/s 752 mmHg 87%
    22:00 +25°C° 0,1 mm 4 m/s 752 mmHg 90%
    23:00 +25°C° 0,3 mm 4 m/s 752 mmHg 90%

    24 Noiembrie, Vineri

    Timp Temperatura Precipitaţii Vânt Presiune Umiditate
    00:00 +25°C° 0,3 mm 4 m/s 751 mmHg 91%
    01:00 +25°C° 0,3 mm 3 m/s 751 mmHg 92%
    02:00 +24°C° 0,1 mm 3 m/s 751 mmHg 93%
    03:00 +24°C° 0,1 mm 3 m/s 751 mmHg 94%
    04:00 +24°C° 0,1 mm 3 m/s 751 mmHg 95%
    05:00 +25°C° 0 mm 3 m/s 751 mmHg 91%
    06:00 +26°C° 0 mm 3 m/s 752 mmHg 88%
    07:00 +26°C° 0 mm 3 m/s 752 mmHg 85%
    08:00 +28°C° 0,1 mm 3 m/s 753 mmHg 77%
    09:00 +29°C° 0,1 mm 3 m/s 753 mmHg 69%
    10:00 +31°C° 0,1 mm 3 m/s 753 mmHg 61%
    11:00 +32°C° 0,1 mm 4 m/s 752 mmHg 59%
    12:00 +33°C° 0,1 mm 4 m/s 752 mmHg 57%
    13:00 +33°C° 0,1 mm 4 m/s 751 mmHg 55%
    14:00 +33°C° 0,5 mm 4 m/s 751 mmHg 58%
    15:00 +32°C° 0,5 mm 4 m/s 750 mmHg 61%
    16:00 +32°C° 0,5 mm 4 m/s 750 mmHg 64%
    17:00 +29°C° 0,1 mm 4 m/s 751 mmHg 70%
    18:00 +28°C° 0,1 mm 3 m/s 751 mmHg 76%
    19:00 +27°C° 0,1 mm 3 m/s 752 mmHg 82%
    20:00 +26°C° 0 mm 3 m/s 752 mmHg 84%
    21:00 +26°C° 0 mm 3 m/s 752 mmHg 87%
    22:00 +26°C° 0 mm 3 m/s 753 mmHg 89%
    23:00 +25°C° 0 mm 3 m/s 752 mmHg 90%

    25 Noiembrie, Sâmbătă

    Timp Temperatura Precipitaţii Vânt Presiune Umiditate
    00:00 +25°C° 0 mm 3 m/s 752 mmHg 92%
    01:00 +25°C° 0 mm 3 m/s 752 mmHg 93%
    02:00 +25°C° 0 mm 3 m/s 752 mmHg 94%
    03:00 +25°C° 0 mm 3 m/s 752 mmHg 95%
    04:00 +25°C° 0 mm 3 m/s 751 mmHg 96%
    05:00 +25°C° 0 mm 3 m/s 752 mmHg 92%
    06:00 +26°C° 0 mm 3 m/s 752 mmHg 89%
    07:00 +27°C° 0 mm 3 m/s 753 mmHg 85%
    08:00 +29°C° 0 mm 3 m/s 753 mmHg 75%
    09:00 +30°C° 0 mm 3 m/s 753 mmHg 64%
    10:00 +33°C° 0 mm 3 m/s 753 mmHg 54%
    11:00 +34°C° 0 mm 4 m/s 752 mmHg 52%
    12:00 +34°C° 0 mm 4 m/s 752 mmHg 51%
    13:00 +35°C° 0 mm 4 m/s 751 mmHg 50%
    14:00 +34°C° 0,1 mm 4 m/s 751 mmHg 52%
    15:00 +34°C° 0,1 mm 4 m/s 750 mmHg 55%
    16:00 +33°C° 0,1 mm 5 m/s 750 mmHg 57%
    17:00 +32°C° 0 mm 4 m/s 750 mmHg 64%
    18:00 +29°C° 0 mm 4 m/s 751 mmHg 71%
    19:00 +27°C° 0 mm 4 m/s 751 mmHg 78%
    20:00 +27°C° 0 mm 4 m/s 752 mmHg 81%
    21:00 +27°C° 0 mm 4 m/s 752 mmHg 85%
    22:00 +26°C° 0 mm 4 m/s 753 mmHg 88%
    23:00 +26°C° 0 mm 4 m/s 752 mmHg 90%

    26 Noiembrie, Duminică

    Timp Temperatura Precipitaţii Vânt Presiune Umiditate
    00:00 +26°C° 0 mm 3 m/s 752 mmHg 91%
    01:00 +26°C° 0 mm 3 m/s 752 mmHg 92%
    02:00 +25°C° 0 mm 3 m/s 752 mmHg 93%
    03:00 +25°C° 0 mm 3 m/s 751 mmHg 94%
    04:00 +25°C° 0 mm 3 m/s 751 mmHg 95%
    05:00 +26°C° 0 mm 3 m/s 752 mmHg 91%
    06:00 +26°C° 0 mm 3 m/s 752 mmHg 88%
    07:00 +27°C° 0 mm 4 m/s 752 mmHg 84%
    08:00 +29°C° 0 mm 4 m/s 752 mmHg 73%
    09:00 +32°C° 0 mm 4 m/s 752 mmHg 62%
    10:00 +34°C° 0 mm 4 m/s 752 mmHg 50%
    11:00 +35°C° 0 mm 4 m/s 752 mmHg 46%
    12:00 +36°C° 0 mm 5 m/s 751 mmHg 42%
    13:00 +36°C° 0 mm 5 m/s 751 mmHg 38%
    14:00 +36°C° 0 mm 5 m/s 750 mmHg 41%
    15:00 +35°C° 0 mm 5 m/s 750 mmHg 43%
    16:00 +34°C° 0 mm 5 m/s 750 mmHg 46%
    17:00 +32°C° 0 mm 5 m/s 750 mmHg 55%
    18:00 +29°C° 0 mm 4 m/s 751 mmHg 65%
    19:00 +27°C° 0 mm 4 m/s 751 mmHg 75%
    20:00 +27°C° 0 mm 4 m/s 752 mmHg 78%
    21:00 +27°C° 0 mm 4 m/s 752 mmHg 82%
    22:00 +26°C° 0 mm 4 m/s 752 mmHg 86%
    23:00 +26°C° 0 mm 3 m/s 752 mmHg 87%
    Arată mai mult